P/2013 CU129 ( PanSTARRS )

Japanese version
Home page
Updated on December 30, 2013

---------------------------------------------------------------------

* Profile

Discovery Date February 13, 2013
Magnitude 21.0 mag
Discoverer Pan-STARRS 1 telescope (Haleakala)

* Pictures

* Orbital Elements

Epoch 2013 Aug. 16.0 TT = JDT 2456520.5
T 2013 Aug. 6.93216 TT                                  MPC
q   0.8001473            (2000.0)            P               Q
n   0.20172502     Peri.  211.97225     -0.21335996     +0.96509170
a   2.8793616      Node    46.20990     -0.84618449     -0.10483399
e   0.7221095      Incl.   12.14765     -0.48831275     -0.24001633
P   4.89
From 152 observations 2013 Feb. 1-Dec. 23, mean residual 0".5.

* Magnitudes Graph

        H = 16.5  G = 0.15                     [   ,-61]  (             - 2013 June  6)
        m1 = 16.0 + 5 log d + 25.0 log r(t-5)  [-61, 73]  (2013 June  6 - 2013 Oct. 18)
        H = 16.5  G = 0.15                     [ 73,   ]  (2013 Oct. 18 -             )

        * Green curve is:  H = 16.5  G = 0.15

---------------------------------------------------------------------

The orbital elements are published on M.P.E.C. 2013-Y32.
The magnitudes graphs are made with Comet for Windows.

---------------------------------------------------------------------

Copyright(C) Seiichi Yoshida (comet@aerith.net). All rights reserved.